TimeMST,TemperatureF,Dew PointF,Humidity,Sea Level PressureIn,VisibilityMPH,Wind Direction,Wind SpeedMPH,Gust SpeedMPH,PrecipitationIn,Events,Conditions,WindDirDegrees,DateUTC
12:57 AM,36.0,28.0,73,29.88,10.0,Calm,Calm,-,N/A,,Clear,0,2013-09-23 07:57:00
1:57 AM,34.0,28.0,79,29.90,10.0,Calm,Calm,-,N/A,,Clear,0,2013-09-23 08:57:00
2:57 AM,34.0,28.0,79,29.89,10.0,Calm,Calm,-,N/A,,Clear,0,2013-09-23 09:57:00
3:57 AM,33.1,28.0,82,29.92,10.0,Calm,Calm,-,N/A,,Clear,0,2013-09-23 10:57:00
4:57 AM,32.0,27.0,82,29.94,10.0,Calm,Calm,-,N/A,,Clear,0,2013-09-23 11:57:00
6:57 AM,33.1,28.9,85,30.01,10.0,Calm,Calm,-,N/A,,Clear,0,2013-09-23 13:57:00
7:25 AM,39.2,32.0,75,30.15,10.0,Calm,Calm,-,N/A,,Partly Cloudy,0,2013-09-23 14:25:00
7:57 AM,48.0,34.0,58,29.97,10.0,Calm,Calm,-,N/A,,Clear,0,2013-09-23 14:57:00
8:57 AM,55.9,30.9,39,29.97,10.0,Calm,Calm,-,N/A,,Clear,0,2013-09-23 15:57:00
9:57 AM,59.0,28.0,31,29.99,10.0,SSE,5.8,-,N/A,,Clear,160,2013-09-23 16:57:00
10:57 AM,63.0,28.0,27,29.98,10.0,Calm,Calm,-,N/A,,Clear,0,2013-09-23 17:57:00
11:57 AM,66.0,28.0,24,29.97,10.0,Variable,4.6,-,N/A,,Unknown,0,2013-09-23 18:57:00
12:57 PM,69.1,28.0,22,29.96,10.0,Variable,4.6,-,N/A,,Clear,0,2013-09-23 19:57:00
1:57 PM,70.0,28.0,21,29.96,10.0,Variable,3.5,-,N/A,,Clear,0,2013-09-23 20:57:00
2:57 PM,72.0,30.9,22,29.96,10.0,Variable,5.8,-,N/A,,Unknown,0,2013-09-23 21:57:00
3:57 PM,71.1,33.1,25,29.98,10.0,ENE,6.9,-,N/A,,Clear,60,2013-09-23 22:57:00
4:57 PM,69.1,35.1,29,29.99,10.0,SW,6.9,-,N/A,,Clear,220,2013-09-23 23:57:00
6:57 PM,55.9,35.1,45,30.08,10.0,Calm,Calm,-,N/A,,Clear,0,2013-09-24 01:57:00
7:57 PM,50.0,33.1,52,30.07,10.0,Calm,Calm,-,N/A,,Clear,0,2013-09-24 02:57:00
8:57 PM,46.0,32.0,58,30.07,10.0,Calm,Calm,-,N/A,,Clear,0,2013-09-24 03:57:00
9:57 PM,42.1,32.0,67,30.09,10.0,Calm,Calm,-,N/A,,Clear,0,2013-09-24 04:57:00
10:57 PM,39.9,32.0,73,30.08,10.0,Calm,Calm,-,N/A,,Clear,0,2013-09-24 05:57:00
11:57 PM,37.9,32.0,79,30.06,10.0,Calm,Calm,-,N/A,,Clear,0,2013-09-24 06:57:00